Regional Weather Roundup
Issued by NWS

Home | Current Version | Previous Version | Text Only | Print | Product List | Glossary Off
Versions: 1 2 3 4 5 6 7 8 9 10 11 12 13 14 15 16 17 18 19 20 21 22 23 24 25 26 27 28 29 30 31 32 33 34 35 36 37 38 39 40 41 42 43 44 45 46 47 48 49 50

000
ASUS45 KBOU 300107
RWRCO

WEATHER ROUNDUP FOR COLORADO
NATIONAL WEATHER SERVICE DENVER/BOULDER CO
700 PM MDT WED MAR 29 2017

NOTE: "FAIR" INDICATES FEW OR NO CLOUDS BELOW 12000 FEET WITH NO
SIGNIFICANT WEATHER AND/OR OBSTRUCTIONS TO VISIBILITY.

COZ001>005-013-030-031-300200-
...NORTHWEST COLORADO...

CITY           SKY/WX    TMP DP  RH WIND       PRES   REMARKS
CRAIG          FAIR      50  23  34 W7        30.06S
HAYDEN         FAIR      48  25  40 SW9       30.06S
MEEKER         FAIR      51  27  39 VRB3      30.06S
MOUNT WERNER   NOT AVBL
STEAMBOAT SPGS FAIR      46  27  47 SW9G17    30.06S
WALDEN         NOT AVBL
$$

COZ006>008-011-300200-
...WEST CENTRAL VALLEYS...

CITY           SKY/WX    TMP DP  RH WIND       PRES   REMARKS
GRAND JUNCTION FAIR      61  24  24 W12       30.00F
MONTROSE       FAIR      56  23  27 NW7       30.06R
EAGLE          PTCLDY    54  27  35 W10       30.05R
RIFLE          FAIR      58  24  27 N6        30.03S
DELTA          FAIR      62  22  21 W14       30.02R
NUCLA          FAIR      55  21  26 NW10      30.08R
$$

COZ017>023-064>068-300200-
...SOUTHWEST COLORADO...

CITY           SKY/WX    TMP DP  RH WIND       PRES   REMARKS
DURANGO        FAIR      57  10  15 NW12      29.98R
CORTEZ         FAIR      58  20  22 N13       30.03R
PAGOSA SPRINGS FAIR      53   8  16 CALM      30.03R
TELLURIDE      FAIR      41  13  31 CALM      30.16R
WOLF CREEK PAS FAIR      30  10  43 NW7       30.21R WCI  23
$$

COZ009-010-012-014-032>034-037-058>063-300200-
...CENTRAL COLORADO...

CITY           SKY/WX    TMP DP  RH WIND       PRES   REMARKS
ASPEN          FAIR      46  23  40 NW12      30.06R
BUENA VISTA    FAIR      48   7  18 NW17G26   30.03R
COPPER MTN     FAIR      30  12  47 NW16G22   30.15S WCI  19
BERTHOUD PASS  FAIR      19   9  63 NW23G35   30.13S HAZE    WCI   2
COTTONWOOD PAS FAIR      41  16  36 NW7       30.09R
GUNNISON       FAIR      48  21  34 NW7       30.07R
KREMMLING      FAIR      50  27  40 NW12      30.08R
LEADVILLE      FAIR      36   8  31 N12       30.09S
MONARCH PASS   FAIR      30  12  47 NW12G21   30.27R WCI  21
SALIDA         FAIR      54   7  15 N16G24    30.07R
SUNLIGHT       FAIR      30  18  59 CALM      30.21R
WILKERSON PASS FAIR      32  16  51 NW9       30.14S WCI  24
$$

COZ069>075-300200-
...SAN LUIS VALLEY/SANGRE DE CRISTO MOUNTAINS...

CITY           SKY/WX    TMP DP  RH WIND       PRES   REMARKS
ALAMOSA        FAIR      52  15  23 NW16      29.98S
LA VETA PASS   NOT AVBL
SAGUACHE       FAIR      50  12  22 NW17G28   30.02R
$$

COZ035-036-038>040-300200-
...NORTHERN COLORADO FRONT RANGE...

CITY           SKY/WX    TMP DP  RH WIND       PRES   REMARKS
DENVER INTL AP FAIR      50  33  52 E9        29.97R
DMNS CITY PARK   N/A     54  26  34 N6        29.97S
AURORA         PTCLDY    50  34  54 E10       29.98S
FRONT RANGE AP PTCLDY    50  36  57 SE6       29.98R
ERIE MUNI ARPT FAIR      57  23  26 NE8         N/A
BOULDER MUN AP FAIR      55  27  33 CALM      29.96S
CENTENNIAL     FAIR      51  27  39 N10       29.98S
BROOMFIELD     PTCLDY    55  27  33 N9        29.98F
FORT COLLINS   FAIR      57  28  33 NE13      29.94S
LONGMONT       FAIR      60  26  27 CALM      29.97R
$$

COZ041-046-047-076>085-087-088-300200-
...PIKES PEAK/PALMER DIVIDE AND SOUTHERN FOOTHILLS...

CITY           SKY/WX    TMP DP  RH WIND       PRES   REMARKS
COLO. SPRINGS  FAIR      49  27  42 N20       30.00R
A. F. ACADEMY  CLEAR     47  28  46 NW12      30.00R
SCHRIEVER AFB  FAIR      47  29  49 N14G24    30.00R
ELLICOTT       FAIR     N/A N/A N/A NE9       29.99R
FALCON         FAIR      45  28  50 N8        30.02R
FORT CARSON    CLEAR     51  29  42 N12       29.98R
LIMON          FAIR      44  35  70 N13       29.98R
MONUMENT HILL  FAIR      41  30  65 N6        30.03R
TRINIDAD       FAIR      45  34  65 N6        30.02R
$$

COZ042>045-048>051-090-091-300200-
...NORTHEAST COLORADO...

CITY           SKY/WX    TMP DP  RH WIND       PRES   REMARKS
GREELEY ARPT   FAIR      57  25  29 N9        29.95R
AKRON          FAIR      46  34  62 NE12      29.97R
BURLINGTON     CLOUDY    43  38  82 N14       29.95R
WRAY           NOT AVBL
STERLING       FAIR      50  37  62 E10       29.95S
HOLYOKE        MOCLDY    46  37  71 NE9       29.97S
FORT MORGAN    FAIR      50  35  56 NE12      29.96S
$$

COZ086-089-092>099-300200-
...SOUTHEAST COLORADO...

CITY           SKY/WX    TMP DP  RH WIND       PRES   REMARKS
PUEBLO         FAIR      55  33  43 NE15      29.95S
LA JUNTA       FAIR      50  37  61 NE7       29.97S
LAMAR          MOCLDY    48  38  68 N10       29.95R
SPRINGFIELD      N/A     43  37  79 N14       29.94R
$$



USA.gov is the U.S. government's official web portal to all federal, state and local government web resources and services.